Wetterdaten: Woche 22.01.07 - 28.01.07 (KW4)
Datum Zeit Temperatur Luftfeuchte Luftdruck Niederschlag
22.01.2007 00:00 2,6 C 72 % 1020 hPa 0,0 l/m
22.01.2007 01:00 2,1 C 73 % 1020 hPa 0,0 l/m
22.01.2007 02:00 1,1 C 78 % 1020 hPa 0,0 l/m
22.01.2007 03:00 0,6 C 83 % 1019 hPa 0,0 l/m
22.01.2007 04:00 0,4 C 86 % 1019 hPa 0,0 l/m
22.01.2007 05:00 0,2 C 88 % 1018 hPa 0,0 l/m
22.01.2007 06:00 -0,3 C 90 % 1018 hPa 0,0 l/m
22.01.2007 07:00 -0,4 C 93 % 1017 hPa 0,0 l/m
22.01.2007 08:00 -0,2 C 95 % 1017 hPa 0,0 l/m
22.01.2007 09:00 0,6 C 95 % 1017 hPa 0,0 l/m
22.01.2007 10:00 1,3 C 88 % 1017 hPa 0,0 l/m
22.01.2007 11:00 2,1 C 84 % 1016 hPa 0,0 l/m
22.01.2007 12:00 3,0 C 77 % 1016 hPa 0,0 l/m
22.01.2007 13:00 3,6 C 72 % 1015 hPa 0,0 l/m
22.01.2007 14:00 4,1 C 67 % 1015 hPa 0,0 l/m
22.01.2007 15:00 4,1 C 71 % 1014 hPa 0,0 l/m
22.01.2007 16:00 3,6 C 74 % 1014 hPa 0,0 l/m
22.01.2007 17:00 2,9 C 76 % 1014 hPa 0,0 l/m
22.01.2007 18:00 2,6 C 80 % 1014 hPa 0,0 l/m
22.01.2007 19:00 2,6 C 79 % 1014 hPa 0,0 l/m
22.01.2007 20:00 2,4 C 80 % 1014 hPa 0,0 l/m
22.01.2007 21:00 2,2 C 86 % 1014 hPa 0,0 l/m
22.01.2007 22:00 1,3 C 96 % 1014 hPa 0,0 l/m
22.01.2007 23:00 0,9 C 98 % 1014 hPa 0,0 l/m
23.01.2007 00:00 0,7 C 98 % 1014 hPa 0,0 l/m
23.01.2007 01:00 0,6 C 97 % 1013 hPa 0,0 l/m
23.01.2007 02:00 0,6 C 97 % 1013 hPa 0,0 l/m
23.01.2007 03:00 0,5 C 98 % 1012 hPa 0,0 l/m
23.01.2007 04:00 0,5 C 98 % 1011 hPa 2,0 l/m
23.01.2007 05:00 0,5 C 98 % 1010 hPa 0,0 l/m
23.01.2007 06:00 0,6 C 95 % 1009 hPa 0,0 l/m
23.01.2007 07:00 0,6 C 91 % 1008 hPa 0,0 l/m
23.01.2007 08:00 0,7 C 90 % 1007 hPa 0,0 l/m
23.01.2007 09:00 0,2 C 93 % 1007 hPa 0,0 l/m
23.01.2007 10:00 -0,3 C 93 % 1006 hPa 0,0 l/m
23.01.2007 11:00 -0,9 C 91 % 1005 hPa 0,0 l/m
23.01.2007 12:00 -1,3 C 94 % 1004 hPa 0,0 l/m
23.01.2007 13:00 -1,6 C 96 % 1003 hPa 0,0 l/m
23.01.2007 14:00 -2,0 C 98 % 1002 hPa 0,0 l/m
23.01.2007 15:00 -2,5 C 98 % 1001 hPa 0,0 l/m
23.01.2007 16:00 -2,8 C 98 % 1001 hPa 0,0 l/m
23.01.2007 17:00 -2,8 C 97 % 1000 hPa 0,0 l/m
23.01.2007 18:00 -2,8 C 95 % 1000 hPa 0,0 l/m
23.01.2007 19:00 -3,0 C 90 % 1000 hPa 0,0 l/m
23.01.2007 20:00 -3,5 C 91 % 1000 hPa 0,0 l/m
23.01.2007 21:00 -3,8 C 92 % 999 hPa 0,0 l/m
23.01.2007 22:00 -3,9 C 88 % 999 hPa 0,0 l/m
23.01.2007 23:00 -4,2 C 88 % 999 hPa 0,0 l/m
24.01.2007 00:00 -4,3 C 88 % 998 hPa 0,0 l/m
24.01.2007 01:00 -4,4 C 90 % 999 hPa 0,0 l/m
24.01.2007 02:00 -4,5 C 93 % 999 hPa 0,0 l/m
24.01.2007 03:00 -4,8 C 93 % 999 hPa 0,0 l/m
24.01.2007 04:00 -5,3 C 90 % 999 hPa 0,0 l/m
24.01.2007 05:00 -5,7 C 93 % 999 hPa 0,0 l/m
24.01.2007 06:00 -5,9 C 93 % 1000 hPa 0,0 l/m
24.01.2007 07:00 -5,9 C 91 % 1001 hPa 0,0 l/m
24.01.2007 08:00 -6,0 C 91 % 1002 hPa 0,0 l/m
24.01.2007 09:00 -5,8 C 90 % 1002 hPa 0,0 l/m
24.01.2007 10:00 -5,6 C 88 % 1003 hPa 0,0 l/m
24.01.2007 11:00 -5,4 C 85 % 1003 hPa 0,0 l/m
24.01.2007 12:00 -5,3 C 85 % 1004 hPa 0,0 l/m
24.01.2007 13:00 -4,9 C 80 % 1004 hPa 0,0 l/m
24.01.2007 14:00 -5,1 C 80 % 1005 hPa 0,0 l/m
24.01.2007 15:00 -5,1 C 83 % 1005 hPa 0,0 l/m
24.01.2007 16:00 -5,5 C 82 % 1006 hPa 0,0 l/m
24.01.2007 17:00 -5,8 C 85 % 1007 hPa 0,0 l/m
24.01.2007 18:00 -5,9 C 88 % 1008 hPa 0,0 l/m
24.01.2007 19:00 -6,0 C 87 % 1009 hPa 0,0 l/m
24.01.2007 20:00 -6,2 C 87 % 1009 hPa 0,0 l/m
24.01.2007 21:00 -6,2 C 88 % 1010 hPa 0,0 l/m
24.01.2007 22:00 -6,6 C 88 % 1010 hPa 0,0 l/m
24.01.2007 23:00 -7,8 C 86 % 1010 hPa 0,0 l/m
25.01.2007 00:00 -9,0 C 85 % 1011 hPa 0,0 l/m
25.01.2007 01:00 -9,3 C 86 % 1011 hPa 0,0 l/m
25.01.2007 02:00 -8,6 C 90 % 1012 hPa 0,0 l/m
25.01.2007 03:00 -7,8 C 92 % 1012 hPa 0,0 l/m
25.01.2007 04:00 -7,6 C 91 % 1013 hPa 0,0 l/m
25.01.2007 05:00 -7,6 C 90 % 1013 hPa 0,0 l/m
25.01.2007 06:00 -8,4 C 88 % 1013 hPa 0,0 l/m
25.01.2007 07:00 -9,0 C 89 % 1014 hPa 0,0 l/m
25.01.2007 08:00 -8,4 C 92 % 1015 hPa 0,0 l/m
25.01.2007 09:00 -6,9 C 90 % 1016 hPa 0,0 l/m
25.01.2007 10:00 -6,1 C 84 % 1016 hPa 0,0 l/m
25.01.2007 11:00 -5,6 C 80 % 1017 hPa 0,0 l/m
25.01.2007 12:00 -5,1 C 76 % 1017 hPa 0,0 l/m
25.01.2007 13:00 -5,0 C 73 % 1017 hPa 0,0 l/m
25.01.2007 14:00 -5,0 C 76 % 1017 hPa 0,0 l/m
25.01.2007 15:00 -5,1 C 79 % 1017 hPa 0,0 l/m
25.01.2007 16:00 -5,2 C 78 % 1018 hPa 0,0 l/m
25.01.2007 17:00 -5,6 C 79 % 1019 hPa 0,0 l/m
25.01.2007 18:00 -6,1 C 80 % 1019 hPa 0,0 l/m
25.01.2007 19:00 -6,0 C 80 % 1020 hPa 0,0 l/m
25.01.2007 20:00 -6,2 C 80 % 1020 hPa 0,0 l/m
25.01.2007 21:00 -6,7 C 81 % 1020 hPa 0,0 l/m
25.01.2007 22:00 -6,2 C 87 % 1020 hPa 0,0 l/m
25.01.2007 23:00 -5,7 C 90 % 1021 hPa 0,0 l/m
26.01.2007 00:00 -5,5 C 88 % 1021 hPa 0,0 l/m
26.01.2007 01:00 -5,5 C 90 % 1021 hPa 0,0 l/m
26.01.2007 02:00 -5,6 C 88 % 1021 hPa 0,0 l/m
26.01.2007 03:00 -5,8 C 88 % 1021 hPa 0,0 l/m
26.01.2007 04:00 -5,8 C 81 % 1020 hPa 0,0 l/m
26.01.2007 05:00 -5,9 C 78 % 1021 hPa 0,0 l/m
26.01.2007 06:00 -6,0 C 77 % 1021 hPa 0,0 l/m
26.01.2007 07:00 -6,2 C 77 % 1021 hPa 0,0 l/m
26.01.2007 08:00 -6,4 C 76 % 1022 hPa 0,0 l/m
26.01.2007 09:00 -6,1 C 77 % 1022 hPa 0,0 l/m
26.01.2007 10:00 -6,2 C 78 % 1023 hPa 0,0 l/m
26.01.2007 11:00 -5,8 C 74 % 1023 hPa 0,0 l/m
26.01.2007 12:00 -5,5 C 70 % 1023 hPa 0,0 l/m
26.01.2007 13:00 -4,9 C 61 % 1023 hPa 0,0 l/m
26.01.2007 14:00 -5,3 C 62 % 1023 hPa 0,0 l/m
26.01.2007 15:00 -4,8 C 59 % 1022 hPa 0,0 l/m
26.01.2007 16:00 -5,8 C 64 % 1022 hPa 0,0 l/m
26.01.2007 17:00 -7,2 C 70 % 1022 hPa 0,0 l/m
26.01.2007 18:00 -8,6 C 73 % 1023 hPa 0,0 l/m
26.01.2007 19:00 -8,3 C 76 % 1023 hPa 0,0 l/m
26.01.2007 20:00 -8,6 C 77 % 1023 hPa 0,0 l/m
26.01.2007 21:00 -7,2 C 76 % 1024 hPa 0,0 l/m
26.01.2007 22:00 -7,1 C 78 % 1024 hPa 0,0 l/m
26.01.2007 23:00 -6,2 C 76 % 1024 hPa 0,0 l/m
27.01.2007 00:00 -6,0 C 76 % 1023 hPa 0,0 l/m
27.01.2007 01:00 -5,5 C 73 % 1023 hPa 0,0 l/m
27.01.2007 02:00 -5,3 C 75 % 1023 hPa 0,0 l/m
27.01.2007 03:00 -5,2 C 73 % 1023 hPa 0,0 l/m
27.01.2007 04:00 -5,0 C 66 % 1024 hPa 0,0 l/m
27.01.2007 05:00 -4,9 C 72 % 1024 hPa 0,0 l/m
27.01.2007 06:00 -4,8 C 80 % 1024 hPa 0,0 l/m
27.01.2007 07:00 -4,7 C 83 % 1024 hPa 0,0 l/m
27.01.2007 08:00 -4,4 C 81 % 1025 hPa 0,0 l/m
27.01.2007 09:00 -3,8 C 83 % 1026 hPa 0,0 l/m
27.01.2007 10:00 -2,8 C 80 % 1026 hPa 0,0 l/m
27.01.2007 11:00 -2,1 C 80 % 1027 hPa 0,0 l/m
27.01.2007 12:00 -1,3 C 79 % 1027 hPa 0,0 l/m
27.01.2007 13:00 0,5 C 69 % 1027 hPa 0,0 l/m
27.01.2007 14:00 0,0 C 74 % 1028 hPa 0,0 l/m
27.01.2007 15:00 -0,2 C 77 % 1029 hPa 0,0 l/m
27.01.2007 16:00 -0,3 C 77 % 1029 hPa 0,0 l/m
27.01.2007 17:00 -0,2 C 78 % 1030 hPa 0,0 l/m
27.01.2007 18:00 -0,4 C 83 % 1031 hPa 0,0 l/m
27.01.2007 19:00 -0,4 C 83 % 1031 hPa 0,0 l/m
27.01.2007 20:00 -0,4 C 82 % 1032 hPa 0,0 l/m
27.01.2007 21:00 -0,6 C 87 % 1032 hPa 0,0 l/m
27.01.2007 22:00 -0,7 C 88 % 1033 hPa 0,0 l/m
27.01.2007 23:00 -0,5 C 87 % 1033 hPa 0,0 l/m
28.01.2007 00:00 -0,5 C 88 % 1033 hPa 0,0 l/m
28.01.2007 01:00 -0,5 C 87 % 1033 hPa 0,0 l/m
28.01.2007 02:00 -0,1 C 84 % 1033 hPa 0,0 l/m
28.01.2007 03:00 -0,0 C 84 % 1033 hPa 0,0 l/m
28.01.2007 04:00 -0,1 C 84 % 1033 hPa 0,0 l/m
28.01.2007 05:00 0,2 C 82 % 1033 hPa 0,0 l/m
28.01.2007 06:00 0,2 C 83 % 1032 hPa 0,0 l/m
28.01.2007 07:00 0,2 C 83 % 1032 hPa 0,0 l/m
28.01.2007 08:00 -0,0 C 86 % 1032 hPa 0,0 l/m
28.01.2007 09:00 0,1 C 87 % 1032 hPa 0,0 l/m
28.01.2007 10:00 0,9 C 79 % 1031 hPa 0,0 l/m
28.01.2007 11:00 1,6 C 74 % 1030 hPa 0,0 l/m
28.01.2007 12:00 2,4 C 68 % 1029 hPa 0,0 l/m
28.01.2007 13:00 3,1 C 62 % 1028 hPa 0,0 l/m
28.01.2007 14:00 2,6 C 65 % 1027 hPa 0,0 l/m
28.01.2007 15:00 2,2 C 69 % 1027 hPa 0,0 l/m
28.01.2007 16:00 2,2 C 67 % 1026 hPa 1,0 l/m
28.01.2007 17:00 1,7 C 70 % 1026 hPa 0,0 l/m
28.01.2007 18:00 1,6 C 71 % 1027 hPa 0,0 l/m
28.01.2007 19:00 1,5 C 72 % 1027 hPa 0,0 l/m
28.01.2007 20:00 1,4 C 73 % 1027 hPa 0,0 l/m
28.01.2007 21:00 1,4 C 73 % 1027 hPa 1,0 l/m
28.01.2007 22:00 1,4 C 74 % 1027 hPa 0,0 l/m
28.01.2007 23:00 1,2 C 75 % 1026 hPa 0,0 l/m
Min-Datum _ 25.01.07 26.01.07 23.01.07 -
_ Min-Zeit 01:13 13:44 22:50 -
Minimum _ -9,5 C 57 % 998 hPa -
Max-Datum _ 22.01.07 22.01.07 27.01.07 23.01.07
_ Max-Zeit 14:40 22:39 22:05 04:42
Maximum _ 4,2 C 98 % 1033 hPa 2,0 l/m
Durchschnitt _ -2,8 C 83 % 1017 hPa #4,0 l/m

Durchschnitt Minimum Temp.-3,0 C
Durchschnitt Maximum Temp.-2,6 C